Location: Newark
(25.4800°N, 85.7200°E)
Time: 15:23:11
(UTC+00:00)

Explorer 11/Cluster Stage 4 - Pass Details

Date: 24 August 2019
Orbit: 467 x 1260 km, 28.8° (Epoch: 17 September)

Event Time Altitude Azimuth Distance (km) Brightness Sun altitude
Rises 11:34:45 0° 270° (W) 3,833 12.0 14.8°
Reaches altitude 10° 11:39:05 10° 248° (WSW) 2,696 10.6 13.8°
Maximum altitude 11:42:21 14° 218° (SW) 2,250 9.5 13.1°
Drops below altitude 10° 11:45:19 10° 186° (S) 2,396 9.1 12.4°
Sets 11:48:47 0° 161° (SSE) 3,141 9.4 11.6°
